www.pogodaiklimat.ru

Погода и климат >> Архив погоды >> Австралия >> Южная Австралия >> Аэродром Вумера


ПОГОДА на Аэродроме Вумера

  • Прогноз погоды на Аэродроме Вумера
  • Монитор погоды на Аэродроме Вумера

АРХИВ ПОГОДЫ на Аэродроме Вумера

Время (UTC), дата Ветер
(напр.,м/с)
 
Видим.   Явления Облачность Т
(С)
Тd
(С)
f
(%)
Тe
(С)
Тes
(С)
Комфортность P
(гПа)
Po
(гПа)
Тmin
(С)
Tmax
(С)
R
(мм)
R24
(мм)
S
(см)
13 15.09 С 7 н/о н/о +23.3 -2.3 18 +22 +22 комфорт 1015.9 996.0
14 15.09 С 6 н/о 4/0
[]
+21.5 -2.4 20 +21 +21 комфорт 1015.7 995.8 +33.1
15 15.09 С 7 н/о н/о +20.7 -2.4 21 +20 +20 1015.5 995.6
16 15.09 С 6 н/о н/о +20.1 -2.3 22 +20 +20 1015.3 995.4
17 15.09 ЮЗ 5 н/о 10/0
[]
+19.4 -2.2 23 +19 +19 1015.7 995.8
18 15.09 З 3 н/о н/о +17.6 -2.6 25 +18 +18 1015.3 995.4
19 15.09 ЮЗ 3 н/о н/о +17.2 -1.9 27 +17 +17 1015.5 995.6
20 15.09 ЮЗ 6 н/о 10/0
[]
+15.8 -0.4 33 +15 +15 1016.6 996.7
21 15.09 ЮВ 9 н/о н/о +14.9 +10.3 74 +13 +13 1016.4 996.5
22 15.09 ЮВ 10 н/о н/о +15.0 +10.8 76 +13 +13 1017.4 997.5
23 15.09 Ю 11 н/о 9/0
[]
+15.4 +10.4 72 +13 +13 1019.1 999.1
00 16.09 Ю 10 н/о н/о +16.2 +8.2 59 +14 +14 1019.5 999.5
01 16.09 ЮВ 8 н/о н/о +17.1 +6.3 49 +16 +16 1019.4 999.4
02 16.09 Ю 9 н/о 9/0
[]
+17.9 +6.4 47 +17 +17 1019.9 999.9 +14.7
03 16.09 Ю 10 н/о н/о +19.4 +7.2 45 +19 +19 1019.7 999.7
04 16.09 Ю 9 н/о н/о +21.0 +6.2 38 +22 +22 комфорт 1019.4 999.4
05 16.09 Ю 9 н/о 10/0
[]
+20.8 +6.7 40 +21 +21 комфорт 1019.6 999.6
06 16.09 Ю 10 н/о н/о +19.9 +4.8 37 +20 +20 1019.9 999.9
07 16.09 Ю 10 н/о н/о +18.4 +1.9 33 +17 +17 1020.7 1000.7
08 16.09 Ю 11 н/о 6/0
[]
+16.5 +5.2 47 +15 +15 1021.7 1001.7
09 16.09 Ю 10 н/о н/о +14.7 +4.1 49 +12 +12 1022.5 1002.5
10 16.09 Ю 11 н/о н/о +13.6 +4.2 53 +11 +11 1023.4 1003.3
11 16.09 Ю 9 н/о н/о +13.0 +3.9 54 +10 +10 1024.4 1004.3
12 16.09 Ю 9 н/о н/о +12.4 +3.9 56 +9 +9 1024.8 1004.7
13 16.09 Ю 8 н/о н/о +11.6 +4.1 60 +9 +9 1025.0 1004.9
14 16.09 Ю 7 н/о н/о +11.0 +4.2 63 +8 +8 1024.9 1004.8 +24.4
15 16.09 ЮВ 6 н/о н/о +10.4 +4.3 66 +7 +7 1024.9 1004.8
16 16.09 ЮВ 6 н/о н/о +9.5 +3.9 68 +6 +6 1024.7 1004.6
17 16.09 ЮВ 6 н/о н/о +8.9 +3.3 68 +5 +5 1024.3 1004.2
18 16.09 ЮВ 4 н/о н/о +8.1 +3.0 70 +5 +5 1024.3 1004.2
19 16.09 Ю 5 н/о н/о +7.6 +3.1 73 +4 +4 1024.4 1004.3
20 16.09 ЮВ 7 н/о н/о +7.1 +2.2 71 +2 +2 1024.7 1004.6
21 16.09 ЮВ 7 н/о н/о +6.5 +1.4 70 +2 +2 1024.9 1004.8
22 16.09 ЮВ 7 н/о н/о +8.5 +1.0 59 +5 +5 1025.3 1005.2
23 16.09 ЮВ 9 н/о н/о +10.7 +0.7 50 +7 +7 1026.0 1005.9
00 17.09 В 8 н/о н/о +12.3 +0.1 43 +10 +10 1026.1 1006.0
01 17.09 В 7 н/о н/о +14.5 -0.8 35 +13 +13 1026.1 1006.0
02 17.09 СВ 4 н/о н/о +15.8 -1.7 30 +15 +15 1025.8 1005.7 +6.5
03 17.09 В 4 н/о н/о +16.4 -3.7 25 +16 +16 1025.3 1005.2
04 17.09 В 6 н/о н/о +18.8 -4.6 20 +18 +18 1024.6 1004.5
05 17.09 В 3 н/о н/о +18.4 -5.6 19 +19 +19 1024.0 1003.9
06 17.09 СВ 3 н/о н/о +18.7 -5.4 19 +19 +19 1023.6 1003.5
07 17.09 В 3 н/о н/о +19.3 -5.6 18 +19 +19 1023.6 1003.5
08 17.09 СВ 2 н/о н/о +19.1 -5.7 18 +20 +20 1023.8 1003.7
09 17.09 В 4 н/о н/о +17.2 -5.9 20 +17 +17 1024.3 1004.2
10 17.09 В 4 н/о н/о +15.1 -7.0 21 +14 +14 1024.7 1004.6
11 17.09 В 4 н/о н/о +13.8 -6.9 23 +13 +13 1025.2 1005.1
12 17.09 В 4 н/о н/о +12.4 -7.6 24 +11 +11 1025.5 1005.4
13 17.09 В 3 н/о н/о +12.9 -7.2 24 +12 +12 1025.3 1005.2
14 17.09 В 3 н/о н/о +12.0 -7.4 25 +11 +11 1024.8 1004.7 +20.1
15 17.09 В 4 н/о н/о +10.2 -7.9 27 +9 +9 1024.6 1004.5
16 17.09 В 4 н/о н/о +9.3 -8.2 28 +7 +7 1024.4 1004.3
17 17.09 В 5 н/о н/о +8.4 -8.6 29 +6 +6 1023.7 1003.6
18 17.09 СВ 5 н/о н/о +9.2 -8.8 27 +7 +7 1023.5 1003.4
19 17.09 СВ 4 н/о н/о +7.4 -9.0 30 +5 +5 1023.0 1003.0
20 17.09 С 5 н/о н/о +7.9 -8.6 30 +5 +5 1023.5 1003.4
21 17.09 С 5 н/о н/о +6.4 -9.9 30 +3 +3 1023.6 1003.5
22 17.09 СВ 5 н/о н/о +10.4 -8.8 25 +8 +8 1023.9 1003.8
23 17.09 С 10 н/о н/о +13.4 -8.4 21 +11 +11 1023.7 1003.6
00 18.09 С 10 н/о н/о +16.1 -7.5 19 +14 +14 1024.4 1004.3
01 18.09 С 8 н/о н/о +18.8 -7.5 16 +18 +18 1024.0 1003.9
02 18.09 С 8 н/о н/о +19.9 -7.5 15 +19 +19 1023.2 1003.1 +6.0
03 18.09 С 8 н/о н/о +21.1 -7.4 14 +20 +20 1022.1 1002.1
04 18.09 С 8 н/о н/о +22.3 -8.4 12 +20 +20 1021.1 1001.1
05 18.09 С 8 н/о н/о +23.2 -8.9 11 +21 +21 комфорт 1020.2 1000.2
06 18.09 С 8 н/о н/о +23.6 -8.5 11 +21 +21 комфорт 1019.2 999.2
07 18.09 С 8 н/о н/о +23.6 -8.5 11 +21 +21 комфорт 1018.7 998.7
08 18.09 С 8 н/о 9/0
[]
+23.4 -8.7 11 +21 +21 комфорт 1018.8 998.8
09 18.09 С 8 н/о н/о +21.5 -8.0 13 +20 +20 1018.4 998.4
10 18.09 СВ 6 н/о н/о +19.9 -6.6 16 +19 +19 1018.4 998.4
11 18.09 СВ 6 н/о н/о +18.3 -7.1 17 +18 +18 1018.6 998.6
12 18.09 СВ 6 н/о н/о +17.1 -6.7 19 +16 +16 1018.2 998.2
13 18.09 СВ 6 н/о н/о +16.1 -6.2 21 +15 +15 1017.6 997.7
14 18.09 СВ 6 н/о н/о +15.4 -5.6 23 +14 +14 1017.3 997.4 +24.6
15 18.09 СВ 6 н/о н/о +14.7 -4.6 26 +13 +13 1016.4 996.5
16 18.09 С 7 н/о н/о +15.3 -3.6 27 +14 +14 1015.8 995.9
17 18.09 С 8 н/о н/о +15.1 -3.7 27 +13 +13 1015.1 995.2
18 18.09 С 9 н/о н/о +14.8 -3.5 28 +13 +13 1014.3 994.4
19 18.09 С 10 н/о н/о +15.2 -3.6 27 +13 +13 1013.8 993.9
20 18.09 С 8 н/о 9/0
[]
+15.8 -3.6 26 +14 +14 1014.4 994.5
21 18.09 С 9 н/о н/о +16.5 -3.6 25 +15 +15 1015.1 995.2
22 18.09 С 11 н/о н/о +17.2 -3.5 24 +16 +16 1014.9 995.0
23 18.09 С 14 н/о 10/0
[]
+19.3 -4.2 20 +18 +18 1014.3 994.4
00 19.09 С 15 н/о н/о +21.6 -6.1 15 +20 +20 1013.7 993.8
01 19.09 С 15 н/о н/о +23.7 -8.5 11 +21 +21 комфорт 1012.8 993.0
02 19.09 С 15 7000 м 10/10 600 м
[]
+26.2 -9.1 9 +23 +23 комфорт 1012.0 992.2 +14.3
03 19.09 С 14 н/о н/о +28.0 -9.3 8 +24 +24 комфорт 1010.9 991.1
04 19.09 С 14 н/о н/о +29.9 -9.6 7 +26 +26 жарко 1009.5 989.7
05 19.09 С 14 8000 м 10/10 600 м
[]
+30.5 -9.1 7 +26 +26 жарко 1008.4 988.6
06 19.09 С 13 н/о н/о +31.6 -8.3 7 +27 +27 жарко 1007.7 988.0
07 19.09 С 13 н/о н/о +31.3 -8.6 7 +27 +27 жарко 1007.2 987.5
08 19.09 С 11 6000 м 10/10 600 м
[]
+29.9 -9.6 7 +26 +26 жарко 1007.1 987.4
09 19.09 С 12 н/о н/о +28.2 -10.8 7 +24 +24 комфорт 1006.7 987.0
10 19.09 С 11 н/о н/о +27.3 -9.8 8 +24 +24 комфорт 1006.8 987.1
11 19.09 СВ 12 н/о 10/0
[]
+27.3 -9.8 8 +24 +24 комфорт 1006.8 987.1
12 19.09 СВ 10 н/о н/о +27.2 -9.9 8 +24 +24 комфорт 1007.0 987.3
13 19.09 З 6 н/о н/о +26.4 -10.5 8 +23 +23 комфорт 1008.5 988.7
14 19.09 С 5 н/о 10/0
[]
+26.0 -10.8 8 +23 +23 комфорт 1008.9 989.1 +32.1
15 19.09 С 5 н/о н/о +25.5 -9.7 9 +23 +23 комфорт 1008.6 988.8
16 19.09 ЮЗ 6 н/о н/о +20.6 +6.2 39 +21 +21 комфорт 1009.0 989.2
17 19.09 ЮЗ 5 н/о 10/0
[]
+19.4 +6.5 43 +20 +20 1008.9 989.1
18 19.09 ЮЗ 6 н/о н/о +19.2 +7.6 47 +19 +19 1009.8 990.0
19 19.09 Ю 10 н/о н/о +18.4 +8.1 51 +18 +18 1010.2 990.4
20 19.09 Ю 10 н/о 10/0
[]
+17.9 +8.5 54 +17 +17 1011.4 991.6
21 19.09 Ю 9 н/о н/о +17.8 +8.1 53 +17 +17 1011.4 991.6
22 19.09 Ю 8 н/о н/о +17.9 +7.6 51 +17 +17 1012.1 992.3
23 19.09 Ю 8 н/о 10/0
[]
+18.3 +7.7 50 +18 +18 1012.2 992.4
00 20.09 Ю 10 н/о н/о +17.6 +8.2 54 +16 +16 1011.4 991.6
01 20.09 Ю 8 н/о н/о +18.1 +8.7 54 +17 +17 1013.1 993.2
02 20.09 ЮЗ 10 н/о 10/0
[]
+18.2 +8.5 53 +17 +17 1011.5 991.7 +17.8
03 20.09 ЮЗ 10 н/о н/о +17.3 +8.4 56 +16 +16 1013.1 993.2
04 20.09 ЮЗ 11 н/о н/о +13.7 +11.2 85 +10 +10 1012.5 992.7
05 20.09 ЮЗ 11 н/о в посл. час дождь {туман} 10/10 300 м
[]
+13.0 +10.5 85 +9 +9 1013.5 993.6 0.2
06 20.09 ЮЗ 9 н/о н/о +12.8 +8.5 75 +10 +10 1013.8 993.9
07 20.09 ЮЗ 9 н/о н/о +11.4 +8.6 83 +8 +8 1014.1 994.2
08 20.09 ЮЗ 8 н/о туман местами 6/6 300 м
[]
+10.5 +9.4 93 +6 +6 1014.9 995.0
09 20.09 ЮЗ 9 н/о н/о +9.6 +8.2 91 +5 +5 1015.7 995.8
10 20.09 ЮЗ 5 н/о н/о +9.5 +8.6 94 +6 +6 1016.5 996.6
11 20.09 З 5 н/о {туман} 10/0
[]
+9.5 +8.9 96 +6 +6 1017.0 997.1 4
12 20.09 З 4 н/о н/о +9.1 +8.8 98 +6 +6 1017.2 997.3
13 20.09 З 4 н/о н/о +8.4 +8.3 99 +5 +5 1017.5 997.6
14 20.09 З 6 н/о н/о +8.1 +7.8 98 +4 +4 1017.3 997.4 +27.5
15 20.09 З 5 н/о н/о +7.3 +7.0 98 +3 +3 1017.3 997.4
16 20.09 З 6 н/о н/о +7.1 +6.5 96 +3 +3 1017.3 997.4
17 20.09 З 4 н/о н/о +6.7 +6.1 96 +3 +3 1017.0 997.1
18 20.09 З 4 н/о н/о +6.3 +5.9 97 +3 +3 1017.2 997.3
19 20.09 З 7 н/о н/о +6.5 +5.9 96 +1 +1 1017.3 997.4
20 20.09 З 5 н/о н/о +6.0 +5.6 97 +2 +2 1018.8 998.8
21 20.09 З 5 н/о н/о +5.8 +5.4 97 +1 +1 1019.8 999.8
22 20.09 З 6 н/о н/о +7.6 +6.5 93 +3 +3 1020.5 1000.5
23 20.09 З 8 н/о в посл. час дождь {туман} 3/3 300 м
[]
+9.7 +6.8 82 +6 +6 1021.4 1001.4 4
00 21.09 ЮЗ 8 н/о н/о +11.8 +6.9 72 +9 +9 1022.0 1002.0
01 21.09 ЮЗ 8 н/о н/о +13.4 +6.3 62 +11 +11 1021.9 1001.9
02 21.09 ЮЗ 8 н/о 10/10 1000 м
[]
+13.8 +4.7 54 +12 +12 1021.8 1001.8 +5.7
03 21.09 ЮЗ 7 н/о н/о +14.2 +3.7 49 +12 +12 1022.0 1002.0
04 21.09 З 7 н/о н/о +14.9 +2.8 44 +13 +13 1022.0 1002.0
05 21.09 З 7 н/о 9/9 1500 м
[]
+15.5 +2.3 41 +14 +14 1021.7 1001.7
06 21.09 З 7 н/о н/о +16.1 +2.2 39 +15 +15 1021.6 1001.6
07 21.09 З 7 н/о н/о +15.6 +1.7 39 +14 +14 1021.9 1001.9
08 21.09 З 9 н/о н/о +15.1 +2.6 43 +13 +13 1022.2 1002.2
09 21.09 З 7 н/о н/о +13.5 +3.0 49 +11 +11 1023.0 1003.0
10 21.09 ЮЗ 4 н/о н/о +11.9 +4.2 59 +10 +10 1023.8 1003.7
11 21.09 ЮЗ 4 н/о н/о +10.6 +4.3 65 +9 +9 1024.5 1004.4
12 21.09 ЮЗ 3 н/о н/о +10.0 +4.4 68 +8 +8 1025.0 1004.9
13 21.09 ЮЗ 3 н/о н/о +9.2 +4.0 70 +7 +7 1025.3 1005.2
14 21.09 ЮЗ 2 н/о 4/0
[]
+8.5 +3.8 72 +7 +7 1025.4 1005.3 +16.9
15 21.09 ЮЗ 2 н/о н/о +7.9 +4.1 77 +6 +6 1025.7 1005.6
16 21.09 ЮЗ 3 н/о н/о +7.4 +4.0 79 +5 +5 1025.6 1005.5
17 21.09 ЮЗ 3 н/о н/о +6.5 +3.7 82 +4 +4 1025.2 1005.1
18 21.09 ЮЗ 3 н/о н/о +6.2 +3.9 85 +3 +3 1025.2 1005.1
19 21.09 З 2 н/о н/о +6.2 +3.9 85 +4 +4 1025.4 1005.3
20 21.09 ЮЗ 2 н/о н/о +5.5 +3.8 89 +3 +3 1025.9 1005.8
21 21.09 З 2 н/о н/о +5.0 +3.2 88 +2 +2 1026.6 1006.5
22 21.09 З 2 н/о н/о +7.4 +4.5 82 +5 +5 1027.6 1007.5
23 21.09 З 3 н/о н/о +10.9 +4.1 63 +9 +9 1028.3 1008.1
00 22.09 З 4 н/о н/о +12.8 +4.0 55 +11 +11 1028.6 1008.4
01 22.09 З 6 н/о н/о +14.5 +3.0 46 +13 +13 1028.4 1008.2
02 22.09 З 8 н/о 1/1 1000 м
[]
+15.9 +3.4 43 +14 +14 1028.0 1007.9 +4.9
03 22.09 З 7 н/о н/о +16.7 +2.3 38 +16 +16 1027.3 1007.2
04 22.09 З 8 н/о н/о +17.4 +0.1 31 +16 +16 1026.8 1006.7
05 22.09 З 7 н/о н/о +17.5 +1.5 34 +17 +17 1026.2 1006.1
06 22.09 ЮЗ 6 н/о н/о +18.0 +1.9 34 +18 +18 1026.0 1005.9
07 22.09 З 7 н/о н/о +18.2 +2.1 34 +18 +18 1026.1 1006.0
08 22.09 ЮЗ 7 н/о н/о +17.2 +2.0 36 +16 +16 1026.4 1006.3
09 22.09 З 7 н/о н/о +15.8 +1.9 39 +14 +14 1027.0 1006.9
10 22.09 ЮЗ 5 н/о н/о +14.8 +2.0 42 +14 +14 1027.8 1007.7
11 22.09 ЮЗ 4 н/о н/о +13.3 +2.8 49 +12 +12 1028.7 1008.5

 

Местоположение метеостанции Аэродром Вумера (Южная Австралия, Австралия): широта -31.15 долгота 136.81 высота над уровнем моря 167 м.

В архиве по умолчанию представлена погода на Аэродроме Вумера за последнюю неделю. Архивные данные за месяц целиком и за предыдущие месяцы, начиная с января 2011 года, Вы можете получить, выбрав интересующий диапазон дат из раскрывающегося списка и нажав кнопку "Ввод!".


*Определитесь, кто Вы:
робот инопланетянин человек

Внимание! Время в таблицах - всемирное. Для получения местного времени необходимо прибавить поправку, которая равна 9.5 ч.

Смотрите также архив погоды в соседних городах и на ближайших метеорологических станциях:

Погода в Олимпик Дэм (Южная Австралия, Австралия) (75 км)
Погода в Ли-Крике (Южная Австралия, Австралия) (165 км)
Погода в Порт Огаста (Южная Австралия, Австралия) (175 км)
Погода в Марри (Южная Австралия, Австралия) (205 км)
Погода в Таркуле (Южная Австралия, Австралия) (218 км)
Погода в Уиолле (Южная Австралия, Австралия) (224 км)
Погода в Миннипа Пирса (Южная Австралия, Австралия) (245 км)
Погода в Уудинне (Южная Австралия, Австралия) (247 км)
Погода в Кливе аэропорту (Южная Австралия, Австралия) (287 км)
Погода в Юнте (Южная Австралия, Австралия) (305 км)

Пояснения к столбцам:

Ветер - указаны скорость ветра в м/с - средняя за 10 мин, порывы в срок и между сроками (в фигурных скобках) и направление, откуда дует ветер: С - северный, СВ - северо-восточный, В - восточный, ЮВ - юго-восточный, Ю - южный, ЮЗ - юго-западный, З - западный, СЗ - северо-западный.
Видимость - горизонтальная дальность видимости в метрах или километрах. При видимости от 1 до 10 км при отсутствии осадков обычно наблюдается дымка, при ухудшении видимости до 1 км и менее - туман. В сухую погоду видимость может ухудшаться дымом, пылью или мглою.
Явления - указаны атмосферные явления, наблюдавшиеся в срок или в последний час перед сроком; фигурными скобками обозначены явления, наблюдавшиеся между сроками (за 1-3 часа до срока); квадратными скобками обозначены град или гололедные отложения с указанием их диаметра в мм.
Облачность - указаны через наклонную черту общая и нижняя облачность в баллах и высота нижней границы облаков в метрах; квадратными скобками обозначены формы облаков: Ci - перистые, Cs - перисто-слоистые, Cc - перисто-кучевые, Ac - высококучевые, As - высокослоистые, Sc - слоисто-кучевые, Ns - слоисто-дождевые, Cu - кучевые, Cb - кучево-дождевые. Подробнее классификацию облаков см. в Атласе облаков (PDF).
T - Температура воздуха - температура, измеренная на высоте 2 м над землей.
Td - Температура точки росы - температура, при понижении до которой содержащийся в воздухе водяной пар достигнет насыщения.
f - Относительная влажность воздуха - влажноcть воздуха, измеренная на высоте 2 м над землей.
Te - Эффективная температура - температура, которую ощущает одетый по сезону человек в тени. Характеристика душности погоды. При расчете учитывается влияние влажности воздуха и скорости ветра на теплоощущения человека.
Tes - Эффективная температура на солнце - температура, которую ощущает человек, с поправкой на солнечный нагрев. Характеристика знойности погоды. Зависит от высоты солнца над горизонтом, облачности и скорости ветра. Ночью, в пасмурную погоду, а также при ветре 12 м/с и более поправка равна нулю.
P - Атмосферное давление - приведенное к уровню моря атмосферное давление.
Po - Атмосферное давление - измеренное на уровне метеостанции атмосферное давление.
Tmin - Минимальная температура - минимум температуры воздуха на высоте 2 м над землей.
Tmax - Максимальная температура - максимум температуры воздуха на высоте 2 м над землей.
R - Количество осадков - Количество выпавших осадков за период времени, мм. При наведении курсора мыши на число - период времени, за который выпало указанное количество осадков.
R24 - Количество осадков - Количество выпавших осадков за 24 часа, мм.
S - Снежный покров - Высота снежного покрова, см. При наведении курсора мыши на число - состояние снежного покрова и степень покрытия местности в баллах.